TimePDT,TemperatureF,Dew PointF,Humidity,Sea Level PressureIn,VisibilityMPH,Wind Direction,Wind SpeedMPH,Gust SpeedMPH,PrecipitationIn,Events,Conditions,WindDirDegrees,DateUTC
12:15 AM,59.0,37.4,45,30.08,10.0,ESE,5.8,-,N/A,,Clear,110,2013-08-19 07:15:00
12:35 AM,57.2,37.4,48,30.08,10.0,East,3.5,-,N/A,,Clear,80,2013-08-19 07:35:00
12:55 AM,57.2,37.4,48,30.08,10.0,Calm,Calm,-,N/A,,Clear,0,2013-08-19 07:55:00
1:15 AM,57.2,37.4,48,30.08,10.0,Calm,Calm,-,N/A,,Clear,0,2013-08-19 08:15:00
1:35 AM,57.2,37.4,48,30.08,10.0,Calm,Calm,-,N/A,,Clear,0,2013-08-19 08:35:00
1:55 AM,59.0,37.4,45,30.08,10.0,SSW,4.6,-,N/A,,Clear,210,2013-08-19 08:55:00
2:15 AM,55.4,35.6,47,30.08,10.0,Calm,Calm,-,N/A,,Clear,0,2013-08-19 09:15:00
2:35 AM,55.4,37.4,51,30.08,10.0,Calm,Calm,-,N/A,,Clear,0,2013-08-19 09:35:00
2:55 AM,55.4,35.6,47,30.08,10.0,Calm,Calm,-,N/A,,Clear,0,2013-08-19 09:55:00
3:15 AM,51.8,35.6,54,30.09,10.0,SE,3.5,-,N/A,,Clear,140,2013-08-19 10:15:00
3:35 AM,53.6,35.6,51,30.09,10.0,Calm,Calm,-,N/A,,Clear,0,2013-08-19 10:35:00
3:55 AM,53.6,35.6,51,30.09,10.0,Calm,Calm,-,N/A,,Clear,0,2013-08-19 10:55:00
4:15 AM,53.6,37.4,54,30.08,10.0,Calm,Calm,-,N/A,,Clear,0,2013-08-19 11:15:00
4:35 AM,51.8,35.6,54,30.08,10.0,Calm,Calm,-,N/A,,Clear,0,2013-08-19 11:35:00
4:55 AM,50.0,33.8,54,30.09,10.0,NE,3.5,-,N/A,,Clear,50,2013-08-19 11:55:00
5:15 AM,51.8,37.4,58,30.09,10.0,ENE,3.5,-,N/A,,Clear,60,2013-08-19 12:15:00
5:35 AM,50.0,35.6,58,30.09,10.0,Calm,Calm,-,N/A,,Clear,0,2013-08-19 12:35:00
5:55 AM,50.0,35.6,58,30.09,10.0,Calm,Calm,-,N/A,,Clear,0,2013-08-19 12:55:00
6:15 AM,50.0,35.6,58,30.09,10.0,Calm,Calm,-,N/A,,Clear,0,2013-08-19 13:15:00
6:35 AM,51.8,35.6,54,30.10,10.0,Calm,Calm,-,N/A,,Clear,0,2013-08-19 13:35:00
6:55 AM,51.8,35.6,54,30.11,10.0,Calm,Calm,-,N/A,,Clear,0,2013-08-19 13:55:00
7:15 AM,55.4,37.4,51,30.11,10.0,Calm,Calm,-,N/A,,Clear,0,2013-08-19 14:15:00
7:35 AM,57.2,37.4,48,30.11,10.0,ESE,4.6,-,N/A,,Clear,120,2013-08-19 14:35:00
7:55 AM,59.0,39.2,48,30.12,10.0,Calm,Calm,-,N/A,,Clear,0,2013-08-19 14:55:00
8:15 AM,60.8,39.2,45,30.12,10.0,SE,3.5,-,N/A,,Clear,140,2013-08-19 15:15:00
8:35 AM,64.4,42.8,45,30.12,10.0,Calm,Calm,-,N/A,,Clear,0,2013-08-19 15:35:00
8:55 AM,68.0,42.8,40,30.12,10.0,Calm,Calm,-,N/A,,Clear,0,2013-08-19 15:55:00
9:15 AM,69.8,44.6,40,30.11,10.0,East,3.5,-,N/A,,Clear,100,2013-08-19 16:15:00
9:35 AM,71.6,42.8,35,30.11,10.0,SE,5.8,-,N/A,,Clear,130,2013-08-19 16:35:00
9:55 AM,73.4,42.8,33,30.11,10.0,East,4.6,-,N/A,,Clear,80,2013-08-19 16:55:00
10:15 AM,75.2,42.8,31,30.10,10.0,Calm,Calm,-,N/A,,Clear,0,2013-08-19 17:15:00
10:35 AM,77.0,42.8,29,30.10,10.0,Calm,Calm,-,N/A,,Clear,0,2013-08-19 17:35:00
10:55 AM,77.0,42.8,29,30.09,10.0,Calm,Calm,-,N/A,,Clear,0,2013-08-19 17:55:00
11:15 AM,78.8,42.8,28,30.09,10.0,Calm,Calm,-,N/A,,Clear,0,2013-08-19 18:15:00
11:35 AM,82.4,44.6,26,30.08,10.0,NE,9.2,-,N/A,,Clear,40,2013-08-19 18:35:00
11:55 AM,82.4,44.6,26,30.07,10.0,NE,5.8,-,N/A,,Clear,50,2013-08-19 18:55:00
12:15 PM,84.2,44.6,25,30.07,10.0,NNE,6.9,17.3,N/A,,Clear,20,2013-08-19 19:15:00
12:35 PM,84.2,44.6,25,30.06,10.0,North,9.2,-,N/A,,Clear,350,2013-08-19 19:35:00
12:55 PM,87.8,42.8,21,30.06,10.0,NNW,12.7,-,N/A,,Clear,340,2013-08-19 19:55:00
1:15 PM,86.0,42.8,22,30.05,10.0,NNW,6.9,-,N/A,,Clear,330,2013-08-19 20:15:00
1:35 PM,87.8,42.8,21,30.04,10.0,NNW,9.2,16.1,N/A,,Clear,340,2013-08-19 20:35:00
1:55 PM,87.8,42.8,21,30.04,10.0,NNE,5.8,18.4,N/A,,Clear,20,2013-08-19 20:55:00
2:15 PM,87.8,42.8,21,30.04,10.0,North,10.4,16.1,N/A,,Clear,350,2013-08-19 21:15:00
2:35 PM,87.8,42.8,21,30.03,10.0,NNE,4.6,-,N/A,,Clear,30,2013-08-19 21:35:00
2:55 PM,89.6,42.8,20,30.02,10.0,NNW,8.1,-,N/A,,Clear,340,2013-08-19 21:55:00
3:15 PM,89.6,42.8,20,30.01,10.0,NNW,8.1,-,N/A,,Clear,340,2013-08-19 22:15:00
3:35 PM,89.6,42.8,20,30.01,10.0,NNW,11.5,-,N/A,,Clear,340,2013-08-19 22:35:00
3:55 PM,89.6,42.8,20,30.00,10.0,North,8.1,16.1,N/A,,Clear,360,2013-08-19 22:55:00
4:15 PM,87.8,42.8,21,30.00,10.0,NW,9.2,16.1,N/A,,Clear,310,2013-08-19 23:15:00
4:35 PM,87.8,42.8,21,30.00,10.0,NW,10.4,-,N/A,,Clear,320,2013-08-19 23:35:00
4:55 PM,87.8,42.8,21,29.99,10.0,NW,10.4,-,N/A,,Clear,320,2013-08-19 23:55:00
5:15 PM,87.8,42.8,21,29.99,10.0,NNW,9.2,-,N/A,,Clear,340,2013-08-20 00:15:00
5:35 PM,87.8,42.8,21,29.98,10.0,NNW,10.4,-,N/A,,Clear,330,2013-08-20 00:35:00
5:55 PM,87.8,42.8,21,29.99,10.0,NW,10.4,-,N/A,,Clear,320,2013-08-20 00:55:00
6:15 PM,86.0,42.8,22,29.98,10.0,NW,9.2,-,N/A,,Clear,320,2013-08-20 01:15:00
6:35 PM,84.2,42.8,23,29.98,10.0,NNW,8.1,-,N/A,,Clear,330,2013-08-20 01:35:00
6:55 PM,82.4,42.8,25,29.98,10.0,NW,10.4,-,N/A,,Clear,320,2013-08-20 01:55:00
7:15 PM,80.6,41.0,24,29.99,10.0,NW,11.5,-,N/A,,Clear,320,2013-08-20 02:15:00
7:35 PM,77.0,41.0,28,29.99,10.0,NW,10.4,-,N/A,,Clear,320,2013-08-20 02:35:00
7:55 PM,75.2,41.0,29,30.00,10.0,NW,11.5,-,N/A,,Clear,320,2013-08-20 02:55:00
8:15 PM,73.4,39.2,29,30.01,10.0,NW,9.2,-,N/A,,Clear,320,2013-08-20 03:15:00
8:35 PM,73.4,39.2,29,30.02,10.0,NW,8.1,-,N/A,,Clear,310,2013-08-20 03:35:00
8:55 PM,73.4,39.2,29,30.02,10.0,WNW,6.9,-,N/A,,Clear,290,2013-08-20 03:55:00
9:15 PM,69.8,37.4,31,30.03,10.0,NNW,5.8,-,N/A,,Clear,330,2013-08-20 04:15:00
9:35 PM,68.0,37.4,33,30.03,10.0,WNW,6.9,-,N/A,,Clear,290,2013-08-20 04:35:00
9:55 PM,66.2,37.4,35,30.03,10.0,WNW,5.8,-,N/A,,Clear,290,2013-08-20 04:55:00
10:15 PM,66.2,39.2,37,30.04,10.0,NNW,6.9,-,N/A,,Clear,330,2013-08-20 05:15:00
10:35 PM,68.0,39.2,35,30.04,10.0,WNW,10.4,-,N/A,,Clear,300,2013-08-20 05:35:00
10:55 PM,69.8,39.2,33,30.04,10.0,WNW,10.4,-,N/A,,Clear,300,2013-08-20 05:55:00
11:15 PM,69.8,39.2,33,30.04,9.0,NW,10.4,-,N/A,,Clear,320,2013-08-20 06:15:00
11:35 PM,69.8,39.2,33,30.04,10.0,NW,12.7,-,N/A,,Clear,310,2013-08-20 06:35:00
11:55 PM,69.8,39.2,33,30.05,10.0,WNW,15.0,-,N/A,,Clear,300,2013-08-20 06:55:00